Powrót do katalogu

STARLINK-5675

AktywnyŁącznośćVLEO
NORAD 55340·PAYLOAD·🇺🇸 United States

Wystrzelony Jan 26, 2023 z Cape Canaveral Space Force Station

Loading…

Następne Przeloty (najbliższe 24 godziny)

TLE

ŚwieżeSource: CelesTrak SupGP

Epoka: Sep 14, 2026, 21:19 UTC

1 55340C 23013K   26257.88868056 -.00036555  00000+0 -13238-2 0  2578
2 55340  43.0020 314.6802 0001870 270.4287  19.7577 15.27600535    19

Śledź STARLINK-5675 w czasie rzeczywistym z AllMySat

Download on the App Store